Voltar ao catálogo

CORVUS BC1

AtivoCiênciaSSO
NORAD 42847·PAYLOAD·🇺🇸 United States

Lançado Jul 14, 2017 de Baikonur Cosmodrome

Loading…

Próximas Passagens (próximas 24 horas)

TLE

AtualizadoSource: Space-Track

Época: Sep 14, 2026, 09:08 UTC

1 42847U 17042Y   26257.38108692  .00002773  00000-0  18931-3 0  9992
2 42847  97.4212  56.2233 0012789 137.5243 222.6977 15.06916439500526

Acompanhe CORVUS BC1 em tempo real com AllMySat

Download on the App Store